Wind_Speed
30 31 31 30 29 27 26 26 24 22 21 21 21 21 20 19 19 19 19 19 19 18 17 16 15 14 14 14 14 14 14 14 14 14 13 12 11 11 10 10 9 9 8 8 7 7 7 7 8 9 9 10 11 13 14 14 14 13 11 10 9 8 7 6 6 6 5 5 4 4 5 5 6 7 8 8 9 9 9 8 6 6 5 5 7
29 31 32 32 31 29 29 28 26 24 22 22 22 22 21 20 20 20 19 19 19 19 18 17 16 15 15 15 15 14 14 15 15 15 14 14 13 12 11 10 10 9 8 8 7 7 7 7 7 8 9 10 11 12 13 14 14 14 13 12 11 10 9 8 8 7 7 6 6 6 6 6 6 7 8 8 8 9 11 11 9 8 7 6 6
29 31 33 33 33 32 31 29 28 25 24 23 23 23 22 22 21 20 20 20 20 20 19 18 17 16 16 16 16 15 15 16 16 16 16 15 14 13 12 11 11 10 10 9 8 8 7 7 7 7 8 9 10 11 12 13 13 14 14 14 14 13 13 12 11 11 10 9 9 8 8 8 8 8 9 9 8 9 11 12 12 11 10 9 8
29 31 32 34 35 34 32 31 30 27 26 25 25 24 24 23 22 21 21 21 20 20 20 19 18 18 17 18 18 17 16 16 17 17 17 16 15 14 13 12 12 11 11 10 9 9 8 8 7 7 7 8 8 10 11 12 12 13 13 14 14 15 15 15 15 15 14 13 13 12 11 11 10 10 10 10 9 9 11 12 13 13 12 11 10
30 31 33 34 35 35 34 33 31 30 29 28 27 27 26 25 24 23 22 22 21 21 20 20 19 19 19 20 20 19 18 18 18 18 18 17 16 15 14 14 13 12 12 11 10 9 9 9 9 8 8 8 8 8 9 10 11 11 12 13 14 15 15 16 16 16 17 16 16 15 15 14 14 13 12 11 10 9 10 12 14 14 13 12 11
30 32 34 35 35 36 36 34 33 32 32 31 31 30 29 27 26 25 24 24 23 22 21 20 20 20 21 21 22 21 20 19 19 19 19 19 18 17 16 16 15 14 13 12 11 10 9 9 9 9 9 9 8 8 8 8 9 10 10 11 12 13 14 15 16 16 17 17 17 17 16 16 16 15 14 12 12 11 11 12 13 14 13 12 12
30 32 35 36 36 36 37 36 36 35 35 34 33 32 31 30 29 28 27 26 25 24 23 22 21 22 22 23 23 23 22 21 21 20 20 20 20 19 18 17 16 16 15 13 12 12 11 10 10 9 9 8 8 8 8 8 9 9 9 10 11 12 13 14 15 16 16 17 17 17 17 17 17 17 16 14 12 12 12 13 14 14 13 13 12
29 31 34 36 37 37 38 38 38 38 38 37 35 34 33 31 30 30 29 28 27 26 25 24 23 23 23 24 24 24 23 22 22 21 21 21 21 21 21 20 19 18 17 15 14 13 12 12 11 11 10 9 8 8 8 8 9 9 9 9 10 11 12 12 13 13 14 15 16 17 17 17 18 19 18 16 15 13 12 14 15 15 14 13 12
30 31 33 36 37 38 39 40 40 40 40 39 37 35 34 33 32 32 30 29 28 28 27 26 24 24 24 24 24 24 23 23 23 22 22 22 23 23 23 23 22 20 19 17 16 15 14 14 13 12 11 10 10 9 9 9 10 10 9 9 9 10 11 12 12 12 13 13 14 16 16 17 18 19 18 18 17 16 13 13 15 17 16 14 12
31 31 32 34 37 39 41 41 42 42 41 40 39 38 36 35 34 33 32 31 30 29 29 27 25 24 24 25 25 24 23 23 24 23 23 23 24 24 24 24 24 23 22 20 19 18 17 16 15 14 14 13 12 12 12 12 12 12 11 10 10 11 11 12 13 13 13 13 15 16 16 17 18 18 18 18 17 16 15 14 16 18 18 17 15
32 30 30 32 35 38 41 42 43 43 42 41 41 40 38 37 36 35 33 32 31 31 30 28 27 26 26 26 25 24 24 24 25 24 24 24 25 25 25 25 26 25 24 23 22 21 20 19 18 17 16 16 16 15 15 15 15 16 15 13 12 12 12 13 14 14 14 14 15 16 16 18 19 19 19 18 17 16 15 15 16 18 20 20 19
34 32 31 32 35 37 39 41 42 43 43 42 42 41 40 39 38 36 35 34 33 32 31 29 28 28 27 27 26 25 25 26 26 26 25 25 25 26 27 27 27 27 27 26 25 24 23 22 21 20 19 19 18 18 18 18 18 18 18 17 16 15 15 15 15 16 16 16 16 17 18 19 20 21 20 19 18 17 16 16 17 19 21 22 22
36 35 33 34 35 35 37 38 40 41 42 42 42 42 41 40 39 38 36 36 35 34 32 31 29 29 28 27 27 26 26 27 28 27 27 27 26 26 27 27 27 28 28 28 28 27 27 26 24 23 22 22 21 21 21 21 21 21 21 20 19 19 18 17 17 18 18 18 18 19 20 21 21 22 21 20 19 20 20 20 20 20 22 23 24
40 39 38 37 36 36 36 36 37 39 40 41 42 42 42 41 40 40 39 38 37 36 34 33 31 30 29 29 28 27 27 28 29 29 29 29 28 27 27 27 28 28 28 29 29 29 29 28 27 27 26 25 25 24 24 24 24 24 23 22 22 22 21 20 20 21 21 21 20 20 22 22 22 22 22 21 20 20 21 21 21 22 23 23 24
43 42 41 40 38 37 36 36 36 38 40 41 42 43 43 42 41 41 40 40 39 38 37 36 34 33 32 31 30 28 28 29 30 30 30 30 30 29 28 27 27 27 28 29 29 30 30 30 30 29 29 28 28 28 28 28 27 26 25 25 24 24 23 23 23 23 23 23 22 23 24 25 24 24 24 23 21 20 20 20 22 23 23 23 24
46 45 44 42 40 39 37 35 35 36 38 40 42 43 43 42 42 42 42 41 41 40 39 38 37 36 35 34 32 30 30 30 30 30 31 31 31 29 28 27 27 27 27 28 28 29 29 30 30 31 31 30 30 31 31 31 30 29 28 28 27 27 26 25 25 26 25 24 24 24 25 26 26 26 26 25 24 23 21 21 22 23 23 23 24
47 46 44 43 42 40 38 35 34 34 36 38 41 42 42 42 42 42 42 42 42 42 41 41 40 39 38 36 34 32 32 32 31 31 31 32 31 29 28 27 27 27 27 27 27 28 28 29 30 30 31 31 32 33 33 33 32 30 30 30 29 29 28 28 29 28 27 25 24 24 24 26 27 27 27 27 27 26 24 23 24 25 23 23 24
46 45 43 42 42 41 39 37 36 36 36 38 40 41 41 42 41 41 42 43 43 43 43 43 42 41 39 38 36 34 34 34 33 32 32 32 31 30 28 28 27 26 26 26 26 27 28 28 29 30 31 32 33 34 34 34 33 32 32 31 30 30 30 31 32 31 30 27 26 25 26 27 28 28 28 28 27 27 26 26 26 25 24 23 24
45 45 45 44 44 43 42 40 39 40 39 38 39 39 40 41 40 41 42 43 43 44 44 43 43 42 41 40 38 37 36 36 36 34 34 34 32 31 30 28 26 26 25 26 26 26 27 28 29 30 31 32 34 34 34 34 33 33 32 32 30 30 32 33 33 32 31 29 28 27 28 29 30 30 30 29 28 28 27 27 27 26 25 24 24
46 45 45 45 45 45 44 43 42 42 42 41 39 39 41 41 41 41 42 42 42 43 43 42 42 41 41 41 40 39 38 38 39 38 37 36 35 33 32 30 28 28 27 27 27 26 27 28 29 30 31 32 34 34 34 34 34 33 33 31 30 31 33 33 32 32 32 30 29 28 29 31 32 32 32 31 30 29 29 28 27 27 26 25 25
49 47 45 45 46 46 45 44 44 44 45 44 43 42 42 43 42 42 41 40 41 42 41 41 40 41 41 41 41 40 39 39 40 41 40 39 38 37 35 32 31 31 31 30 29 28 29 30 31 32 33 34 34 35 34 34 34 34 33 31 30 31 32 31 30 30 30 29 28 28 29 30 32 33 34 34 33 32 30 29 28 27 27 27 26
51 49 47 45 44 45 46 46 46 47 48 48 46 44 44 42 41 42 41 39 39 40 41 41 40 40 40 40 40 39 39 39 40 41 41 41 40 39 37 35 35 35 34 33 31 31 31 33 34 36 36 36 36 36 35 35 36 35 34 32 32 31 31 30 29 28 29 30 29 29 29 30 31 33 34 35 35 34 32 30 28 28 29 29 28
51 50 49 47 44 44 46 47 47 47 49 50 48 46 44 43 42 42 41 38 37 37 37 38 39 39 39 39 39 38 38 37 38 39 40 40 40 39 38 37 37 36 35 33 33 33 33 34 36 37 38 37 37 37 37 38 38 37 36 35 34 33 32 31 30 29 30 31 31 30 30 30 31 32 34 36 36 35 34 32 30 29 30 30 30
53 52 51 50 48 46 47 47 47 47 48 49 50 48 46 45 44 43 41 38 36 35 34 35 37 38 37 38 38 38 37 36 36 37 37 38 38 38 37 36 36 36 34 33 33 34 34 35 36 38 37 36 36 37 38 38 38 38 38 38 37 35 33 32 31 31 30 31 31 31 31 31 32 32 34 35 36 35 34 34 32 31 31 31 31
55 54 52 51 49 49 49 49 48 48 47 47 48 49 49 48 46 44 43 40 37 34 33 33 34 34 35 36 36 36 36 36 35 35 36 36 36 35 35 35 35 34 33 32 33 33 34 35 36 36 36 35 35 35 35 36 36 36 37 36 35 34 32 31 31 30 29 29 29 30 30 31 32 33 34 35 35 35 35 35 34 33 32 32 32
55 54 53 52 51 50 52 51 49 48 48 46 45 45 47 48 47 46 43 41 38 35 32 31 29 29 31 33 34 35 36 36 35 35 34 34 34 33 33 33 33 32 31 31 32 32 33 34 34 34 34 34 33 33 32 32 32 32 32 32 32 32 31 30 29 28 28 28 28 28 29 31 33 34 34 35 35 34 35 36 36 34 33 33 33
56 55 55 54 52 51 52 54 51 49 48 47 46 45 45 44 46 46 42 39 39 37 33 30 28 27 28 30 32 34 35 35 35 35 34 34 33 33 34 34 33 32 31 31 32 32 32 33 33 32 32 32 32 32 32 32 31 30 30 31 31 31 31 31 30 28 28 28 28 28 29 31 33 34 35 35 34 34 35 37 37 36 36 35 34
57 56 56 55 53 51 52 53 52 51 50 47 45 44 44 42 42 44 42 38 37 37 34 31 30 29 28 29 31 32 34 35 34 34 35 36 36 36 36 35 34 33 32 32 34 34 33 32 31 30 30 30 30 31 32 32 32 31 31 31 32 32 32 31 30 29 29 30 30 29 30 31 32 35 36 36 34 34 36 38 39 38 38 38 37
58 57 57 56 55 54 53 54 54 52 51 50 47 43 42 41 39 40 41 40 38 38 36 34 33 33 32 31 31 31 31 32 34 37 38 38 38 37 36 36 35 34 34 35 35 34 32 31 30 30 30 29 28 29 30 30 31 31 30 31 32 32 32 31 30 29 30 32 33 32 32 33 33 35 36 36 35 35 37 39 40 40 40 39 39
63 60 59 59 58 56 53 54 57 56 53 54 53 48 43 42 41 39 40 42 40 39 38 38 38 39 37 34 32 31 29 30 34 38 39 38 37 37 37 37 36 36 37 38 35 33 32 32 30 29 29 27 27 27 28 28 29 29 29 30 30 30 31 31 30 31 32 34 35 35 35 35 35 36 36 35 35 36 38 40 41 40 40 40 41
68 66 64 64 63 60 53 49 54 59 57 54 54 51 46 44 43 42 43 44 43 42 40 38 38 41 41 38 35 32 30 31 34 36 36 36 36 37 37 37 37 37 38 38 34 31 31 31 30 29 29 28 27 27 27 28 28 29 29 29 30 30 29 29 30 32 34 35 35 35 36 37 37 37 36 35 35 37 38 40 40 39 39 40 40
64 66 67 68 68 67 62 54 51 56 58 54 51 50 47 45 45 45 44 44 45 46 44 39 36 36 39 39 38 35 33 33 35 35 35 35 36 36 37 37 37 37 38 38 34 30 29 30 30 30 30 29 28 27 27 28 29 28 29 29 30 30 30 30 31 33 35 35 35 35 37 38 39 38 37 35 35 36 38 39 38 38 39 40 40
53 54 61 68 69 68 67 62 54 52 55 53 50 49 48 47 46 46 46 46 45 46 46 45 42 40 39 39 39 38 37 38 38 37 36 36 36 37 37 37 37 38 38 37 34 32 31 31 30 31 31 31 30 29 28 28 29 29 29 30 31 32 32 33 34 34 34 34 35 36 38 39 40 39 38 37 36 37 38 38 37 38 39 41 41
56 49 50 57 63 65 65 63 57 53 53 52 50 49 48 47 47 48 48 48 47 46 47 47 47 45 42 41 41 40 40 42 42 40 39 38 39 40 40 39 38 38 38 37 35 35 35 33 32 31 32 33 33 32 31 30 30 30 31 31 32 33 34 35 36 35 33 33 34 37 39 40 40 40 39 38 37 37 37 37 37 39 40 42 43
71 60 50 47 51 56 60 60 57 54 53 52 50 48 47 46 46 46 47 48 48 48 48 48 48 47 46 45 45 43 42 44 45 45 43 42 42 43 43 41 39 38 38 38 37 38 38 38 36 35 35 35 36 36 35 35 34 33 33 33 33 34 36 37 38 37 36 35 35 37 39 40 40 40 40 39 39 38 37 37 39 40 41 43 44
78 73 65 55 48 48 53 57 56 53 52 53 50 46 45 45 44 43 45 46 46 47 49 49 48 48 48 48 48 46 45 45 45 46 47 46 46 46 45 43 41 40 40 40 40 41 42 41 40 39 39 39 39 39 39 39 39 37 36 35 35 35 37 38 39 40 39 38 37 39 40 41 41 41 41 40 40 40 39 40 41 42 43 45 45
79 78 76 71 59 50 49 54 57 53 50 52 52 47 43 43 43 42 43 44 44 44 47 50 51 51 50 50 49 46 45 45 45 46 47 49 50 50 48 45 43 43 42 42 43 44 44 44 43 43 42 42 42 42 42 42 42 41 40 39 37 37 37 38 40 41 41 40 39 40 41 42 43 43 42 42 42 42 42 43 43 44 45 47 46
82 79 79 78 72 61 52 53 57 56 51 50 52 50 45 43 43 44 44 44 43 43 44 47 51 52 52 50 48 45 44 44 44 45 46 48 50 51 49 47 46 44 43 43 44 45 45 45 45 45 44 44 44 44 44 44 44 44 42 41 39 38 38 38 40 41 41 40 40 40 42 44 44 44 44 44 44 44 45 46 46 46 48 48 46
85 82 80 79 77 72 63 56 55 58 56 53 53 53 49 45 44 45 45 45 45 44 42 41 43 46 46 45 43 42 43 44 44 44 44 46 47 48 49 49 47 45 44 44 45 45 45 45 45 46 46 45 45 45 46 46 46 45 44 43 41 39 38 39 40 41 41 40 40 41 42 44 45 45 47 48 47 47 47 48 47 48 49 49 47
87 86 83 80 78 77 73 64 57 57 59 58 56 55 53 49 46 46 47 46 45 44 42 40 39 39 40 41 42 42 42 43 44 45 45 45 46 47 48 48 48 46 45 44 45 45 45 45 45 47 47 46 46 46 46 46 46 46 45 44 43 42 41 41 42 43 43 41 40 41 43 45 46 48 49 50 50 51 51 51 49 48 47 46 44
88 88 86 84 80 78 77 73 64 59 58 58 58 58 56 53 50 49 49 48 47 45 44 42 41 40 40 40 41 42 43 44 45 45 46 46 47 47 48 48 47 46 46 46 46 46 46 47 48 49 49 49 48 48 48 48 48 47 47 47 47 47 46 45 46 48 47 45 43 43 44 46 48 50 52 53 54 54 54 53 51 50 48 46 43
88 88 87 86 84 80 78 76 71 65 61 58 57 56 56 55 52 51 50 49 48 47 47 45 43 42 43 44 43 43 43 45 46 47 48 48 48 49 49 49 49 48 48 48 47 47 48 49 50 52 52 52 52 51 51 51 51 51 52 53 53 51 50 50 51 52 51 50 49 47 46 47 49 51 52 52 53 53 52 53 54 55 53 48 44
87 87 87 86 85 83 80 77 73 70 66 63 60 57 54 53 51 50 50 50 49 48 47 47 46 45 44 45 47 48 47 48 49 51 50 50 50 50 51 51 52 51 51 49 49 49 50 51 53 55 56 55 54 54 54 54 54 54 55 57 57 55 53 52 53 54 55 55 54 52 51 51 52 53 53 52 53 53 54 54 54 53 49 45 43
87 86 86 85 85 85 83 80 76 72 69 67 65 62 59 57 54 52 49 49 48 48 46 45 45 46 46 46 48 50 51 51 53 53 53 53 53 52 52 53 54 54 53 51 51 51 52 54 58 59 58 56 56 56 55 55 56 57 59 60 61 59 56 54 54 56 57 56 56 56 56 56 58 58 57 55 55 56 56 54 53 50 45 41 41
88 87 85 84 84 84 84 83 79 75 72 69 68 66 65 64 62 59 54 51 50 49 48 46 45 46 47 47 48 51 53 54 54 54 54 54 54 54 54 54 55 54 54 53 53 53 56 60 63 63 60 59 60 60 59 57 58 60 61 60 57 54 54 55 58 59 58 57 58 59 59 61 62 62 58 57 58 58 58 56 55 52 49 44 42
87 87 85 83 82 82 83 83 82 79 75 72 70 69 68 68 67 65 63 60 57 54 52 50 48 48 49 49 49 51 53 54 54 54 55 55 56 56 57 57 56 55 55 55 55 55 57 61 63 62 61 61 61 60 60 59 58 60 62 61 58 56 58 62 64 64 62 62 62 63 64 66 67 64 60 59 59 57 55 53 51 50 50 48 45
86 85 84 82 80 79 79 81 81 81 79 76 73 72 71 70 69 68 67 66 64 61 59 56 53 51 51 51 51 51 53 54 53 53 54 55 55 56 57 57 57 56 54 54 54 54 56 58 59 58 58 58 57 56 55 55 55 56 58 59 57 57 59 61 62 64 65 65 66 67 68 67 65 64 63 62 57 50 45 45 46 46 46 46 44
83 83 82 81 79 77 76 76 78 79 80 78 76 74 73 72 72 71 69 68 67 66 64 62 59 56 54 54 53 53 54 55 53 52 53 53 53 54 55 54 54 53 52 51 51 52 54 56 57 57 56 56 55 54 53 54 55 56 57 56 56 57 59 60 62 64 65 67 68 69 68 66 64 64 62 56 52 48 45 44 43 43 43 43 45
77 79 79 79 79 77 75 74 74 75 77 78 77 76 75 74 74 73 72 70 69 68 67 66 63 59 57 56 55 54 55 56 55 53 52 52 52 52 53 52 52 52 51 51 51 53 55 56 57 57 57 57 56 56 55 54 55 55 56 56 57 58 58 59 60 61 63 65 68 69 68 66 64 58 49 43 42 45 48 47 46 46 48 50 53
70 73 74 75 77 77 76 74 72 72 73 74 75 75 75 75 75 75 74 73 72 71 70 69 66 63 60 59 56 54 54 56 56 54 52 52 52 52 52 52 52 52 52 53 53 54 56 58 59 59 59 58 58 58 59 58 57 57 57 58 59 58 58 58 60 61 63 64 66 66 66 66 63 58 53 52 53 54 52 51 51 53 54 55 57
61 65 67 69 72 75 75 74 72 71 70 70 71 72 73 73 75 76 76 76 75 75 74 73 70 66 63 62 59 55 54 55 56 55 53 52 52 52 52 52 52 52 52 53 54 55 57 59 60 61 61 60 60 60 61 62 62 61 60 60 59 59 58 58 60 61 62 63 63 62 62 61 60 58 57 58 61 61 58 57 58 58 57 56 56
Wind_Direction
212 211 210 210 210 208 207 209 211 209 205 203 203 204 204 205 210 213 214 215 214 214 215 215 214 214 215 214 213 214 214 211 207 206 206 206 204 200 194 189 186 183 177 171 165 161 160 166 175 184 190 194 198 203 209 213 216 220 223 225 226 230 237 244 252 262 267 269 271 268 262 257 253 252 251 251 253 258 267 279 295 313 335 358 4
215 214 213 212 212 211 210 211 211 209 207 205 205 206 206 207 210 213 216 217 216 215 216 216 214 213 215 216 215 216 218 217 214 212 212 212 211 206 200 196 194 191 187 184 179 172 166 165 169 180 191 199 203 207 211 216 221 225 230 234 238 241 246 251 259 271 279 284 289 291 288 283 276 271 269 265 261 263 270 281 294 307 322 336 349
217 217 216 215 214 213 212 212 213 210 208 207 208 208 208 209 211 212 216 218 218 217 216 215 214 213 213 215 216 218 219 220 219 217 217 216 215 212 207 204 201 197 195 195 192 187 182 176 174 178 187 197 205 211 215 219 224 228 233 239 244 249 254 257 262 269 275 279 285 291 293 292 289 283 283 283 279 274 276 284 296 307 316 323 333
215 217 217 217 216 215 214 214 214 212 209 208 209 211 211 211 211 212 216 219 220 219 216 214 213 213 213 212 214 217 219 221 223 222 221 221 219 217 214 211 208 204 202 202 200 198 195 192 190 188 189 194 203 211 217 222 226 231 236 240 246 250 255 259 263 268 272 276 279 283 285 288 289 287 288 291 291 287 285 289 297 305 311 315 321
212 214 215 217 218 217 216 216 216 215 213 210 210 212 212 212 212 213 214 217 220 220 217 214 212 213 212 212 212 215 218 222 225 225 226 225 224 222 220 217 214 210 209 208 207 205 204 203 204 203 202 203 206 211 216 222 228 233 238 242 247 251 254 257 261 264 268 272 275 279 281 285 289 291 293 296 299 296 291 291 295 301 306 308 310
212 212 213 215 217 218 218 217 217 218 217 215 213 213 212 212 213 214 215 216 219 220 219 215 212 212 213 213 212 214 216 220 224 226 227 228 227 226 225 223 219 215 214 213 212 212 211 212 214 214 213 214 216 219 220 224 229 234 238 243 247 251 254 257 259 262 265 268 272 276 280 285 291 296 300 302 305 306 301 296 295 299 304 308 307
214 214 213 213 215 217 218 218 218 219 220 219 218 216 214 213 214 215 216 217 219 220 219 216 213 212 214 214 214 215 215 218 222 225 226 227 228 228 228 227 224 222 220 218 217 218 217 219 223 224 222 223 225 227 229 231 235 237 239 242 245 249 253 257 259 262 265 268 272 276 280 283 286 292 297 301 305 306 304 302 301 302 306 309 309
216 217 215 214 214 216 217 218 219 220 221 222 222 220 218 217 217 217 218 219 220 221 220 218 215 214 214 216 217 217 217 218 221 224 225 225 226 227 228 229 228 227 225 223 223 224 224 226 230 233 232 232 233 236 238 241 243 245 245 245 248 251 255 258 261 264 266 270 274 278 281 282 283 286 292 297 299 298 296 297 299 302 307 312 312
220 219 219 216 215 215 217 218 219 220 221 223 224 224 224 222 221 221 221 221 222 223 223 221 218 215 216 217 219 219 219 219 222 224 225 226 226 226 227 228 229 228 228 227 227 228 229 230 233 237 239 240 242 244 247 249 252 255 255 256 256 257 261 263 264 266 269 272 275 278 281 283 284 287 290 294 296 296 293 291 293 296 301 307 312
225 222 221 220 219 218 218 218 219 220 222 223 225 226 227 227 226 225 224 224 224 225 225 225 222 219 218 219 220 220 220 221 223 225 226 227 227 227 227 228 228 228 229 229 229 231 232 232 234 237 240 243 245 248 252 255 258 261 261 262 264 265 267 269 270 270 271 273 274 278 281 283 284 287 289 292 296 298 298 296 294 294 295 298 303
229 227 223 222 222 222 221 221 221 221 222 223 225 226 228 229 229 229 228 227 228 228 228 228 226 223 222 221 220 220 221 222 224 225 226 227 227 228 228 228 228 229 229 229 230 232 234 235 236 237 238 241 244 247 252 256 260 263 265 266 268 270 271 273 275 276 276 276 276 278 280 281 282 284 287 290 293 297 301 300 298 297 296 296 298
231 230 227 225 225 224 224 224 224 224 223 224 225 227 228 230 231 231 231 231 231 232 231 231 230 228 226 224 222 221 221 223 226 226 226 227 227 227 228 228 229 229 229 229 230 232 234 236 238 238 239 241 243 245 248 252 257 261 264 267 268 270 271 273 277 279 279 279 279 280 280 280 282 285 288 291 294 296 298 299 300 299 299 299 301
229 229 229 228 227 226 226 226 226 227 226 226 227 228 229 230 231 232 232 233 233 233 233 233 233 233 232 230 227 224 223 225 227 229 229 229 228 227 228 228 229 230 230 230 231 232 234 236 237 239 240 241 243 245 247 249 252 255 259 263 266 268 269 271 274 276 278 279 280 281 282 284 287 291 294 298 299 299 299 299 299 299 299 301 303
228 227 228 228 228 227 226 226 226 227 227 228 229 229 229 230 231 232 233 234 235 235 235 234 234 234 235 234 232 229 228 228 229 231 232 232 231 230 230 230 230 231 231 232 232 233 234 236 237 238 240 242 244 246 247 249 251 253 255 258 262 265 267 270 271 273 275 278 279 281 284 288 292 296 300 303 304 303 303 302 301 299 298 298 300
230 229 228 228 229 229 228 226 224 224 225 226 227 229 229 229 230 231 232 234 235 236 236 236 235 235 235 235 235 233 231 231 232 232 234 235 235 234 233 233 234 234 234 235 235 234 235 236 236 238 240 242 243 245 248 250 252 254 255 257 259 261 264 266 268 270 272 275 278 281 285 290 294 296 299 302 304 304 304 304 302 299 296 295 295
232 230 228 228 229 231 231 230 228 227 226 226 226 227 228 229 230 231 231 233 234 235 236 237 236 236 236 235 235 234 234 234 234 234 235 236 238 237 236 236 237 237 238 239 239 239 239 239 239 239 240 242 244 247 249 251 253 254 256 256 258 260 261 263 266 268 269 272 275 279 283 287 290 293 295 297 299 300 301 302 300 297 295 294 292
234 233 232 231 230 231 233 234 233 234 233 232 231 229 227 228 229 231 232 233 234 235 235 236 237 237 237 237 236 235 236 237 238 237 237 238 239 240 239 238 238 239 240 241 242 243 243 243 243 242 242 243 245 248 251 254 255 256 257 258 259 259 260 262 265 267 269 271 274 277 281 283 285 287 289 291 292 294 296 297 296 295 296 295 292
237 237 237 237 236 235 235 235 234 235 235 236 236 234 231 228 228 230 232 233 234 235 235 236 237 238 239 240 240 238 238 240 241 241 241 242 243 242 242 241 240 241 241 242 244 245 245 246 247 246 246 246 247 249 252 256 257 257 259 260 262 262 262 262 265 269 271 273 274 276 278 280 282 283 285 286 288 289 290 291 290 292 294 294 292
237 237 237 238 237 236 236 236 236 235 233 235 237 237 236 234 229 228 231 233 234 235 236 236 237 238 240 241 241 241 241 242 244 244 245 246 246 245 245 244 244 243 243 243 245 246 247 249 250 251 250 250 251 251 253 257 259 259 260 262 264 265 265 265 269 272 275 276 276 276 276 276 278 280 282 284 285 285 286 286 286 288 291 292 292
236 237 237 238 238 237 235 235 238 238 236 235 236 237 239 239 234 231 231 232 234 236 236 237 239 240 240 241 241 242 242 243 245 246 247 248 249 249 249 249 249 248 247 247 247 247 249 251 253 254 254 254 255 256 257 260 262 262 263 264 266 266 266 269 273 276 278 279 279 277 275 273 273 275 278 281 283 284 285 285 285 287 289 290 290
235 237 238 238 238 238 236 235 237 239 238 237 237 237 239 241 240 237 235 233 233 235 236 237 238 240 241 242 242 242 242 242 244 246 248 249 250 251 251 252 252 252 252 252 252 251 252 253 254 254 255 255 257 259 261 262 264 265 266 267 267 267 269 273 276 279 282 283 282 280 277 274 272 272 273 275 278 280 282 284 285 285 286 287 286
237 238 238 239 240 240 240 239 239 239 239 238 238 238 238 240 242 243 242 241 240 238 236 236 236 238 240 242 242 242 242 242 244 246 247 249 251 252 253 253 254 254 254 255 256 255 254 254 254 254 254 255 257 260 262 264 266 267 269 270 270 271 274 276 279 282 283 283 283 282 280 278 274 271 270 271 273 276 279 282 283 282 282 282 282
240 240 239 240 241 242 242 242 241 240 239 238 239 239 239 240 241 241 242 245 246 244 239 234 234 236 239 241 243 243 243 243 244 245 247 249 251 252 253 254 254 255 257 257 258 258 257 256 256 255 255 255 256 258 261 264 267 270 272 273 274 275 278 280 283 284 283 283 283 283 281 279 276 273 271 270 270 273 277 279 280 279 279 279 279
242 242 241 241 243 244 244 244 243 242 241 239 238 239 240 240 240 238 238 240 243 245 241 234 233 234 236 240 242 243 244 243 243 244 246 247 249 251 252 254 255 256 258 258 259 259 259 258 258 259 260 260 260 260 261 263 267 270 271 273 275 278 281 283 284 283 284 284 285 284 283 281 279 276 273 271 272 273 275 277 277 277 278 280 280
244 244 243 242 243 244 245 246 245 245 244 242 240 240 240 240 238 238 238 238 239 243 242 236 234 234 234 237 240 242 244 244 243 244 245 246 248 250 252 253 255 256 257 258 258 258 258 259 260 262 264 265 264 264 264 265 267 269 272 275 278 281 283 284 284 285 286 287 287 288 287 285 281 278 275 274 274 274 274 275 276 277 278 280 281
244 244 244 243 242 242 243 245 246 246 246 245 244 241 239 239 238 238 238 238 238 239 239 237 238 239 237 236 238 240 243 244 244 244 245 246 248 250 251 253 254 254 255 255 256 256 257 258 260 262 265 267 269 270 271 271 272 275 277 280 282 284 284 285 286 288 290 291 291 290 287 284 281 279 277 275 275 274 275 276 276 277 278 278 279
243 243 243 242 241 240 240 242 243 245 246 246 246 243 240 239 238 237 236 237 237 237 238 238 239 241 240 238 238 238 240 242 243 244 246 247 248 249 250 251 253 253 254 255 255 255 255 256 259 262 266 270 273 276 277 278 279 281 281 281 282 283 283 285 286 289 291 290 289 286 283 281 279 278 277 276 275 275 275 276 277 278 278 279 281
243 243 243 243 243 241 239 239 241 244 244 242 243 243 241 239 238 235 233 234 235 237 239 240 240 240 240 239 238 238 239 241 243 244 245 245 246 247 248 250 252 253 255 256 257 257 257 258 261 264 266 268 270 272 274 276 277 278 278 279 280 280 281 282 283 285 287 285 283 281 280 279 277 276 275 275 275 274 273 274 277 279 280 281 283
243 242 242 243 244 243 241 240 240 243 243 240 240 243 244 242 240 236 233 234 236 238 240 242 242 240 239 237 237 238 240 242 243 243 243 244 246 248 250 252 254 256 258 258 259 260 262 264 264 265 266 266 266 268 269 271 273 274 276 277 278 279 280 281 281 281 280 280 280 280 279 279 277 275 275 275 274 272 271 272 275 279 281 282 284
244 243 243 243 244 243 242 240 240 241 243 242 242 245 246 246 245 243 238 236 238 241 243 244 244 242 239 237 238 239 239 241 243 244 245 247 248 251 253 255 256 258 259 259 260 261 263 265 267 269 270 270 270 270 271 271 273 276 278 279 279 279 279 279 278 275 273 273 276 279 281 282 281 279 277 276 273 271 270 270 273 278 282 284 285
246 245 245 245 245 245 242 240 239 240 241 243 244 244 245 244 245 245 242 240 240 241 242 244 242 240 238 237 239 240 239 241 244 246 247 248 249 250 252 254 255 257 258 260 260 261 264 268 271 272 273 273 274 274 275 275 276 278 280 282 282 282 280 278 274 271 271 272 276 279 281 282 282 281 279 276 273 272 271 270 273 279 284 286 286
248 247 244 244 245 246 245 245 243 239 238 240 242 242 242 242 243 243 243 243 243 243 244 245 243 239 236 237 241 242 240 241 244 246 246 247 248 249 251 252 254 256 258 260 262 263 265 268 270 272 273 273 273 273 275 276 278 279 281 283 284 284 283 279 276 275 277 280 281 281 281 281 281 281 280 277 274 272 272 272 274 279 284 286 286
244 246 244 242 243 245 246 248 248 242 236 236 238 239 240 241 242 243 244 245 247 249 250 251 250 246 243 243 245 244 242 241 242 244 245 246 248 250 251 252 254 256 259 263 266 267 267 267 269 272 273 273 273 271 271 273 277 279 280 282 283 284 284 281 279 279 280 281 282 281 280 280 280 280 279 277 274 273 273 274 275 278 283 285 284
237 240 241 241 243 244 246 248 248 243 236 233 236 239 239 240 242 244 243 244 246 250 252 251 250 248 246 245 244 243 243 243 242 242 244 245 246 249 251 253 255 258 261 265 267 269 270 270 271 272 273 274 275 275 274 275 277 278 279 279 279 281 282 282 281 280 279 278 278 278 278 278 278 278 277 276 275 274 274 273 273 276 280 283 282
239 238 236 236 239 242 243 244 245 241 234 231 234 237 237 239 242 243 242 240 242 246 248 248 246 244 242 241 242 243 243 244 244 243 244 246 247 250 252 253 256 258 262 265 267 269 270 272 272 273 273 274 275 276 278 279 281 281 281 279 277 277 279 280 281 281 279 278 277 277 277 278 278 278 277 276 275 274 273 271 271 273 278 282 280
243 241 238 236 236 237 237 238 240 237 231 229 231 234 235 237 240 241 240 237 238 243 247 247 245 243 240 240 241 242 243 244 244 245 246 248 250 252 253 254 255 257 259 262 264 266 268 270 271 272 272 273 275 276 277 279 281 281 281 279 277 276 276 277 278 279 279 279 279 279 279 279 279 279 278 277 276 275 272 271 271 273 278 283 279
244 244 242 240 238 236 234 233 235 234 230 227 229 231 234 237 239 241 240 237 236 239 243 244 243 243 240 238 237 239 243 245 245 246 248 250 252 254 255 255 256 257 258 260 262 264 266 268 269 270 271 272 273 274 275 276 277 278 278 278 277 276 275 274 276 277 279 279 279 279 280 280 280 281 280 278 277 276 274 272 272 274 280 283 280
242 244 244 243 241 237 234 232 233 233 231 228 228 230 232 235 238 239 240 239 238 239 241 240 239 239 239 238 236 237 241 245 247 248 248 250 251 253 254 255 256 258 259 259 261 263 264 266 268 269 270 270 271 272 273 274 275 276 277 277 276 275 274 274 275 277 278 279 280 280 280 280 281 282 282 280 278 276 274 273 273 275 280 282 277
241 242 244 245 243 240 236 233 233 233 232 230 229 230 232 236 237 237 238 239 240 243 246 245 239 234 232 233 234 237 241 244 247 249 249 249 250 251 253 255 257 258 259 259 261 262 264 266 268 269 269 269 270 271 271 272 274 275 277 277 277 276 275 275 276 277 278 279 280 280 280 281 282 283 283 282 280 278 276 275 274 277 280 280 274
241 241 243 244 245 243 240 236 234 233 233 232 230 230 233 237 239 238 237 238 239 244 249 252 249 242 235 229 229 233 239 244 247 248 249 250 250 251 253 255 257 258 259 260 261 263 265 267 268 268 269 270 271 271 272 273 274 275 276 277 278 277 277 277 278 279 279 280 280 280 279 280 281 282 282 282 281 280 279 278 279 280 282 281 276
241 241 242 243 244 245 244 241 238 235 234 234 233 232 234 238 240 239 237 236 237 241 246 251 255 257 254 246 238 236 238 242 245 248 249 250 251 252 254 255 257 258 260 261 263 265 267 268 269 270 271 272 273 273 274 275 275 276 277 277 276 277 277 278 279 280 281 281 281 280 278 278 280 282 282 280 279 280 280 281 283 284 282 279 275
241 241 242 243 243 244 245 245 243 240 237 235 234 233 234 236 238 238 236 235 236 239 242 246 250 255 258 258 255 250 247 246 247 249 249 250 252 254 255 256 258 259 261 263 264 266 267 268 269 270 271 272 272 273 274 275 275 276 276 275 275 276 276 277 278 280 281 281 280 279 278 277 280 283 282 279 278 279 279 281 283 284 281 275 268
242 242 242 243 243 243 244 244 244 243 241 239 236 234 233 233 235 235 235 234 237 239 242 244 247 249 252 255 257 256 254 252 252 252 252 253 254 255 257 258 260 261 262 264 265 266 266 267 267 268 269 271 272 273 273 273 274 275 275 274 275 276 276 277 277 278 280 280 279 278 278 279 280 281 281 279 278 277 278 280 282 283 279 270 260
243 243 243 242 242 243 243 244 244 243 242 242 240 238 235 233 234 235 234 234 236 239 241 244 246 246 247 250 254 255 254 253 252 253 254 255 256 257 259 260 261 263 264 266 267 267 268 268 268 269 271 272 274 274 273 272 273 275 275 275 275 274 274 275 276 278 279 279 278 278 280 281 281 281 281 280 279 277 277 278 279 278 274 266 258
244 244 244 243 243 243 243 243 243 243 242 242 242 242 240 238 238 239 239 238 238 239 242 244 247 246 244 246 251 254 254 253 252 252 253 255 257 259 260 261 262 263 265 267 268 270 270 270 271 273 274 275 275 276 276 275 276 276 277 276 275 273 273 276 279 280 280 279 279 279 281 283 283 282 281 280 280 278 275 275 276 274 269 263 260
244 245 244 244 244 243 243 243 244 243 242 242 243 243 243 243 242 243 244 243 242 242 243 245 249 250 247 245 249 252 253 253 253 253 254 256 258 260 262 264 265 265 266 268 269 270 270 271 273 274 275 275 276 277 278 278 278 278 278 279 277 275 275 277 279 278 278 278 279 279 280 281 282 282 280 279 280 278 274 273 274 272 264 259 259
244 245 245 245 245 245 244 244 244 244 243 242 243 243 244 245 245 245 246 246 245 245 245 246 250 252 250 248 249 252 251 251 252 254 254 256 258 260 262 264 266 267 268 268 267 268 270 272 274 274 275 275 276 277 277 277 277 277 279 280 279 278 278 278 277 276 276 277 277 277 278 279 280 281 280 277 274 273 273 274 276 272 264 258 257
243 244 245 245 245 245 245 244 244 244 244 243 243 243 244 245 246 247 248 248 247 247 247 247 249 252 252 250 251 252 251 249 250 252 253 255 257 258 260 262 264 265 266 266 267 268 270 271 273 275 276 277 277 277 277 277 277 277 279 280 280 279 279 279 278 276 275 275 276 277 277 278 281 283 280 271 263 263 269 274 276 273 266 261 262
242 244 245 245 245 245 245 245 245 245 245 244 244 244 244 245 246 248 249 249 249 249 249 249 250 252 251 249 250 251 250 248 248 250 251 253 254 256 257 259 261 262 264 266 267 268 270 271 273 275 276 276 277 277 276 276 276 276 278 279 279 280 280 280 279 278 277 276 277 278 279 280 282 281 273 262 261 268 273 273 273 271 267 266 269
241 243 244 244 244 244 244 245 245 246 245 245 245 245 245 245 246 247 249 250 250 250 251 251 252 253 251 248 248 248 248 246 246 247 249 251 253 254 256 258 260 262 264 266 267 268 270 272 273 274 275 276 277 277 277 277 277 276 276 276 277 278 278 278 279 280 280 279 279 280 281 282 281 276 266 262 268 274 275 275 277 277 274 274 276
240 242 243 243 243 243 243 244 245 246 246 246 246 246 246 246 247 248 249 250 251 251 251 251 252 253 252 248 246 247 248 247 245 245 247 250 252 253 254 257 259 261 263 265 267 268 270 271 272 274 275 276 277 277 278 278 277 276 275 275 275 276 276 277 278 280 281 280 281 282 283 281 279 276 271 269 270 272 274 278 281 281 278 278 279
Height
5922 5923 5925 5927 5929 5931 5932 5933 5935 5937 5938 5940 5941 5942 5943 5945 5946 5947 5949 5950 5951 5952 5953 5954 5955 5956 5958 5959 5960 5961 5961 5961 5962 5962 5962 5963 5963 5963 5964 5964 5965 5965 5965 5966 5966 5967 5967 5967 5968 5969 5969 5970 5971 5972 5973 5974 5974 5975 5975 5975 5975 5976 5976 5976 5977 5977 5977 5978 5978 5979 5979 5979 5979 5979 5979 5978 5978 5978 5978 5978 5978 5978 5978 5977 5977
5920 5921 5923 5925 5927 5929 5930 5932 5933 5935 5937 5938 5940 5941 5942 5943 5944 5946 5947 5948 5949 5951 5952 5953 5954 5955 5957 5958 5959 5960 5961 5961 5961 5962 5962 5962 5963 5963 5963 5964 5964 5965 5965 5966 5966 5966 5967 5967 5968 5968 5969 5970 5971 5971 5972 5973 5974 5974 5974 5975 5975 5975 5975 5976 5976 5977 5977 5977 5978 5978 5978 5978 5978 5978 5978 5978 5978 5977 5977 5977 5977 5977 5978 5977 5977
5917 5918 5920 5923 5925 5926 5928 5930 5932 5934 5935 5937 5938 5939 5940 5941 5943 5944 5945 5946 5948 5949 5950 5952 5953 5954 5956 5957 5958 5959 5960 5960 5961 5961 5962 5962 5962 5962 5963 5963 5964 5964 5965 5965 5965 5966 5966 5967 5967 5968 5968 5969 5970 5970 5971 5972 5972 5973 5973 5974 5974 5974 5975 5975 5976 5976 5976 5977 5977 5977 5977 5977 5977 5977 5977 5977 5977 5977 5977 5977 5977 5977 5977 5977 5976
5913 5915 5918 5920 5922 5924 5926 5928 5930 5932 5934 5935 5936 5937 5938 5939 5941 5942 5943 5945 5946 5947 5949 5950 5952 5953 5954 5955 5957 5958 5958 5959 5960 5960 5961 5962 5962 5962 5962 5963 5963 5963 5964 5964 5965 5965 5966 5966 5967 5967 5968 5968 5969 5969 5970 5970 5971 5971 5972 5972 5973 5973 5974 5974 5975 5975 5975 5976 5976 5976 5976 5976 5976 5976 5976 5976 5977 5977 5976 5976 5976 5976 5976 5976 5975
5909 5912 5914 5917 5919 5922 5924 5926 5929 5930 5931 5932 5933 5934 5935 5937 5938 5940 5941 5942 5944 5945 5947 5948 5950 5951 5952 5954 5955 5956 5957 5958 5959 5960 5960 5961 5962 5962 5962 5963 5963 5963 5963 5963 5964 5965 5966 5966 5966 5967 5967 5967 5968 5968 5969 5969 5970 5970 5970 5971 5971 5972 5972 5973 5973 5973 5974 5974 5974 5974 5974 5974 5974 5974 5975 5976 5976 5976 5976 5976 5975 5976 5976 5975 5974
5906 5908 5911 5913 5916 5919 5922 5924 5926 5928 5929 5930 5930 5931 5933 5934 5936 5937 5938 5940 5941 5943 5944 5946 5948 5949 5950 5952 5953 5954 5955 5956 5957 5959 5960 5960 5961 5962 5962 5962 5962 5962 5962 5963 5963 5964 5965 5965 5966 5966 5966 5967 5967 5968 5968 5968 5969 5969 5970 5970 5970 5971 5971 5971 5971 5972 5972 5972 5972 5973 5973 5973 5972 5972 5973 5974 5975 5975 5975 5974 5974 5974 5974 5974 5973
5905 5906 5908 5910 5913 5916 5919 5922 5924 5925 5926 5927 5928 5929 5930 5932 5933 5934 5936 5937 5938 5940 5942 5944 5945 5947 5948 5949 5951 5952 5953 5955 5956 5957 5958 5959 5960 5961 5961 5962 5962 5962 5962 5962 5963 5964 5964 5965 5965 5965 5966 5966 5967 5967 5967 5967 5968 5968 5969 5969 5969 5969 5970 5970 5970 5971 5971 5971 5971 5971 5971 5971 5971 5971 5971 5972 5973 5973 5973 5972 5971 5972 5972 5972 5972
5903 5904 5906 5908 5910 5913 5915 5918 5920 5921 5923 5924 5926 5927 5929 5930 5931 5932 5933 5935 5936 5938 5939 5941 5942 5944 5946 5947 5948 5950 5951 5953 5954 5955 5956 5957 5958 5959 5960 5960 5961 5961 5962 5962 5963 5963 5964 5964 5965 5965 5965 5966 5966 5966 5966 5966 5967 5967 5967 5968 5968 5968 5968 5969 5969 5969 5970 5970 5970 5969 5969 5969 5969 5969 5969 5969 5970 5970 5970 5970 5969 5969 5969 5970 5970
5901 5902 5903 5905 5908 5909 5911 5913 5915 5917 5919 5922 5924 5926 5927 5928 5929 5930 5932 5933 5934 5935 5937 5938 5940 5942 5943 5945 5946 5948 5950 5951 5952 5953 5954 5955 5956 5957 5958 5959 5959 5960 5961 5962 5963 5963 5963 5964 5965 5965 5965 5965 5965 5965 5965 5965 5966 5966 5966 5967 5967 5967 5967 5967 5967 5968 5968 5968 5968 5968 5968 5967 5967 5967 5966 5966 5966 5967 5968 5968 5967 5967 5967 5968 5968
5899 5900 5902 5904 5905 5906 5907 5909 5911 5913 5916 5919 5921 5923 5925 5926 5927 5929 5930 5931 5932 5933 5934 5936 5938 5940 5941 5942 5944 5945 5947 5948 5949 5950 5952 5953 5954 5954 5955 5957 5957 5958 5960 5961 5962 5962 5963 5963 5964 5964 5965 5965 5965 5965 5965 5965 5965 5965 5965 5966 5966 5966 5966 5966 5966 5966 5966 5966 5966 5966 5966 5966 5965 5964 5964 5964 5963 5964 5965 5966 5965 5965 5965 5965 5966
5897 5899 5900 5901 5902 5903 5905 5906 5908 5910 5913 5916 5918 5920 5922 5924 5926 5927 5928 5929 5930 5931 5932 5934 5936 5937 5939 5940 5941 5943 5945 5946 5947 5948 5949 5950 5951 5952 5953 5954 5955 5956 5958 5959 5960 5961 5961 5962 5963 5963 5964 5964 5964 5964 5964 5964 5964 5964 5964 5964 5965 5965 5964 5964 5964 5964 5965 5965 5964 5964 5964 5963 5963 5962 5962 5961 5961 5961 5962 5963 5963 5963 5963 5963 5963
5895 5897 5898 5898 5898 5900 5902 5904 5906 5908 5910 5912 5915 5917 5919 5921 5923 5925 5927 5928 5929 5929 5931 5933 5934 5935 5936 5937 5939 5941 5942 5943 5944 5945 5946 5947 5948 5949 5950 5951 5953 5954 5955 5957 5958 5959 5960 5961 5961 5962 5962 5962 5962 5963 5963 5963 5962 5962 5963 5963 5963 5963 5963 5963 5963 5963 5963 5963 5963 5963 5962 5961 5961 5960 5960 5960 5960 5960 5960 5961 5961 5961 5960 5960 5960
5892 5893 5894 5894 5895 5897 5898 5900 5903 5905 5907 5909 5911 5913 5915 5918 5921 5923 5925 5926 5926 5927 5929 5931 5932 5933 5934 5935 5936 5938 5939 5940 5941 5942 5943 5944 5945 5946 5947 5948 5950 5951 5952 5954 5955 5957 5958 5958 5959 5960 5960 5960 5961 5961 5961 5961 5961 5961 5961 5961 5962 5961 5961 5962 5962 5961 5961 5962 5962 5961 5960 5959 5959 5959 5958 5958 5958 5958 5958 5958 5958 5958 5958 5957 5957
5887 5888 5889 5890 5891 5893 5894 5896 5898 5901 5903 5905 5907 5909 5911 5914 5916 5919 5921 5922 5924 5925 5927 5929 5930 5931 5932 5932 5934 5935 5936 5937 5938 5938 5939 5940 5941 5943 5944 5945 5947 5948 5950 5951 5952 5954 5955 5956 5957 5958 5958 5958 5958 5958 5958 5958 5958 5959 5959 5960 5960 5960 5960 5960 5960 5959 5959 5960 5960 5960 5959 5958 5958 5958 5957 5957 5957 5956 5956 5956 5955 5955 5955 5955 5954
5882 5884 5885 5886 5888 5889 5891 5893 5894 5896 5897 5899 5901 5903 5906 5908 5911 5913 5916 5918 5920 5922 5923 5925 5927 5928 5929 5930 5931 5932 5933 5934 5934 5935 5936 5937 5938 5939 5941 5943 5944 5946 5947 5948 5950 5951 5952 5953 5954 5955 5955 5955 5956 5955 5955 5955 5956 5956 5957 5958 5958 5958 5958 5959 5958 5958 5958 5958 5958 5958 5957 5957 5957 5956 5955 5955 5954 5954 5954 5954 5953 5952 5952 5952 5951
5877 5879 5881 5882 5884 5887 5889 5891 5893 5894 5894 5895 5896 5898 5900 5903 5906 5908 5910 5912 5915 5917 5919 5921 5923 5924 5925 5926 5927 5929 5930 5930 5931 5932 5933 5933 5934 5936 5939 5941 5942 5943 5945 5946 5947 5948 5949 5950 5951 5952 5952 5953 5953 5952 5952 5952 5953 5954 5954 5955 5955 5956 5956 5957 5956 5956 5956 5956 5957 5957 5956 5956 5955 5954 5953 5953 5952 5952 5952 5952 5950 5949 5949 5949 5948
5873 5876 5878 5880 5883 5885 5887 5889 5891 5892 5893 5894 5894 5895 5896 5898 5901 5903 5905 5908 5910 5912 5914 5917 5918 5920 5921 5923 5925 5926 5927 5927 5928 5929 5930 5930 5932 5934 5936 5938 5939 5941 5942 5943 5944 5945 5946 5947 5948 5948 5949 5949 5949 5949 5949 5949 5950 5951 5951 5952 5953 5953 5954 5954 5954 5953 5954 5955 5955 5956 5955 5954 5953 5952 5951 5951 5950 5950 5950 5949 5948 5947 5946 5946 5945
5871 5873 5876 5879 5881 5883 5885 5886 5887 5888 5890 5892 5893 5894 5894 5894 5896 5899 5901 5903 5905 5907 5909 5911 5913 5916 5918 5920 5922 5924 5924 5925 5925 5926 5927 5928 5929 5931 5933 5935 5936 5938 5939 5940 5942 5942 5943 5944 5944 5945 5946 5946 5946 5946 5946 5946 5946 5948 5948 5949 5950 5951 5951 5951 5951 5951 5952 5953 5954 5954 5953 5952 5951 5950 5949 5949 5948 5948 5948 5947 5946 5944 5944 5943 5942
5867 5868 5871 5874 5876 5879 5881 5883 5884 5884 5885 5887 5890 5892 5894 5893 5893 5893 5895 5897 5900 5902 5904 5906 5909 5912 5914 5916 5918 5920 5921 5922 5922 5923 5924 5925 5926 5928 5930 5932 5934 5935 5937 5938 5939 5940 5940 5941 5941 5942 5942 5942 5942 5942 5943 5943 5943 5944 5945 5945 5947 5948 5948 5947 5948 5948 5949 5950 5951 5951 5951 5950 5948 5947 5946 5946 5946 5946 5945 5945 5943 5942 5941 5941 5940
5863 5864 5866 5868 5871 5873 5876 5878 5880 5881 5882 5883 5886 5889 5892 5893 5892 5890 5889 5892 5894 5896 5899 5902 5905 5908 5911 5913 5914 5917 5918 5918 5918 5919 5920 5921 5923 5925 5926 5929 5931 5932 5934 5935 5936 5937 5938 5938 5938 5938 5938 5938 5938 5938 5939 5939 5940 5940 5941 5942 5944 5944 5943 5944 5945 5946 5946 5947 5948 5948 5947 5946 5945 5944 5943 5942 5942 5942 5942 5942 5941 5940 5939 5938 5937
5858 5859 5861 5863 5865 5868 5870 5872 5875 5877 5878 5880 5882 5885 5887 5890 5891 5890 5888 5889 5890 5891 5893 5897 5900 5903 5906 5908 5910 5913 5915 5915 5915 5915 5916 5917 5919 5921 5923 5925 5927 5928 5929 5931 5932 5934 5934 5934 5934 5934 5934 5934 5934 5934 5935 5936 5936 5936 5937 5939 5940 5940 5940 5941 5943 5943 5943 5944 5944 5943 5943 5942 5941 5940 5939 5939 5938 5938 5938 5939 5939 5938 5937 5935 5934
5853 5855 5857 5859 5861 5863 5865 5866 5869 5871 5874 5876 5878 5880 5882 5885 5888 5889 5889 5889 5889 5889 5889 5891 5895 5898 5901 5903 5906 5909 5910 5911 5911 5912 5912 5913 5914 5916 5919 5921 5922 5923 5924 5926 5928 5929 5930 5930 5929 5929 5929 5930 5931 5931 5932 5932 5932 5932 5933 5935 5936 5936 5937 5938 5939 5940 5940 5939 5939 5939 5938 5937 5936 5936 5935 5934 5934 5934 5934 5935 5935 5934 5933 5932 5931
5848 5851 5853 5855 5857 5858 5860 5861 5864 5866 5868 5871 5873 5874 5876 5879 5882 5884 5886 5888 5889 5889 5888 5888 5889 5893 5896 5899 5902 5904 5906 5907 5907 5908 5908 5909 5910 5912 5914 5916 5916 5917 5919 5922 5923 5924 5924 5924 5924 5924 5925 5926 5927 5928 5928 5928 5928 5929 5930 5931 5932 5933 5934 5935 5935 5935 5935 5935 5934 5934 5933 5932 5931 5931 5930 5930 5929 5929 5930 5930 5930 5930 5929 5928 5928
5842 5845 5848 5850 5852 5854 5855 5857 5859 5861 5863 5865 5868 5869 5871 5873 5876 5878 5881 5883 5885 5887 5886 5884 5885 5888 5891 5894 5897 5900 5901 5902 5903 5903 5904 5904 5905 5907 5909 5910 5911 5912 5915 5917 5918 5918 5918 5919 5919 5919 5920 5922 5923 5924 5924 5924 5925 5926 5926 5927 5928 5929 5930 5931 5931 5930 5930 5930 5929 5929 5929 5928 5927 5926 5926 5925 5925 5926 5926 5925 5925 5925 5925 5924 5924
5836 5839 5842 5844 5847 5849 5851 5852 5854 5856 5858 5860 5862 5864 5867 5869 5871 5874 5876 5878 5881 5883 5882 5881 5882 5885 5887 5890 5893 5895 5897 5898 5899 5900 5900 5900 5901 5902 5904 5905 5906 5907 5910 5911 5912 5912 5913 5913 5913 5914 5916 5918 5918 5919 5920 5921 5921 5922 5923 5923 5924 5925 5926 5926 5925 5925 5925 5925 5925 5925 5924 5923 5923 5922 5921 5921 5921 5922 5922 5921 5920 5920 5921 5921 5920
5831 5833 5836 5838 5841 5844 5845 5847 5849 5851 5853 5855 5857 5859 5861 5864 5867 5869 5871 5874 5877 5879 5878 5877 5879 5881 5884 5886 5888 5890 5892 5894 5895 5896 5896 5896 5897 5898 5898 5899 5900 5902 5904 5906 5907 5907 5908 5908 5909 5910 5912 5913 5914 5915 5916 5917 5918 5919 5920 5920 5921 5921 5921 5921 5921 5921 5921 5921 5921 5921 5920 5919 5917 5917 5916 5916 5917 5917 5917 5916 5916 5916 5917 5917 5916
5825 5828 5830 5832 5835 5838 5839 5841 5844 5847 5848 5851 5852 5854 5856 5859 5862 5864 5867 5869 5872 5874 5874 5874 5875 5878 5880 5882 5883 5885 5887 5889 5891 5892 5892 5892 5892 5892 5893 5894 5895 5897 5900 5901 5902 5902 5903 5904 5905 5907 5909 5910 5911 5912 5912 5912 5913 5915 5916 5916 5916 5916 5916 5916 5916 5917 5917 5917 5916 5916 5915 5913 5912 5911 5911 5911 5912 5913 5912 5911 5911 5911 5912 5912 5912
5818 5821 5824 5826 5829 5831 5834 5836 5839 5841 5844 5846 5848 5849 5851 5853 5856 5859 5861 5864 5866 5868 5869 5870 5871 5874 5876 5878 5879 5880 5882 5885 5887 5888 5888 5887 5887 5887 5887 5889 5890 5892 5895 5896 5896 5897 5898 5900 5903 5905 5906 5908 5909 5909 5909 5909 5909 5909 5910 5910 5910 5910 5911 5911 5911 5912 5912 5911 5910 5910 5910 5909 5907 5906 5906 5906 5907 5908 5907 5906 5906 5906 5906 5907 5907
5812 5814 5818 5821 5823 5826 5829 5831 5833 5835 5838 5841 5843 5844 5846 5848 5851 5853 5856 5858 5861 5863 5864 5866 5868 5870 5872 5874 5875 5876 5879 5881 5882 5881 5881 5882 5883 5883 5884 5885 5886 5888 5890 5890 5891 5893 5895 5897 5899 5901 5902 5904 5905 5905 5905 5905 5905 5905 5905 5906 5906 5906 5906 5906 5906 5906 5906 5904 5904 5905 5904 5904 5903 5902 5901 5902 5903 5903 5902 5901 5901 5901 5901 5902 5902
5805 5808 5811 5814 5817 5819 5822 5825 5827 5829 5831 5834 5837 5839 5841 5843 5845 5848 5850 5852 5855 5857 5860 5862 5864 5865 5868 5870 5871 5872 5875 5876 5875 5875 5877 5879 5880 5881 5881 5881 5882 5884 5884 5884 5887 5890 5892 5894 5895 5897 5898 5900 5901 5901 5901 5901 5901 5901 5901 5901 5901 5902 5902 5902 5902 5901 5900 5899 5899 5899 5899 5898 5898 5897 5897 5898 5898 5898 5897 5897 5897 5897 5897 5897 5896
5797 5801 5805 5807 5809 5811 5814 5818 5821 5823 5825 5828 5830 5833 5836 5838 5841 5843 5845 5847 5849 5852 5855 5857 5859 5861 5864 5866 5867 5868 5870 5870 5870 5871 5873 5875 5876 5876 5877 5877 5877 5878 5878 5879 5883 5886 5888 5890 5891 5893 5893 5895 5896 5897 5897 5897 5898 5897 5897 5897 5897 5897 5897 5897 5897 5896 5895 5895 5895 5895 5894 5893 5892 5892 5892 5893 5894 5893 5893 5893 5893 5892 5892 5891 5890
5790 5794 5797 5800 5802 5804 5807 5810 5814 5817 5819 5822 5824 5827 5830 5832 5835 5838 5840 5841 5843 5846 5849 5852 5854 5856 5859 5861 5862 5863 5865 5865 5865 5866 5868 5869 5870 5871 5871 5872 5872 5872 5873 5874 5879 5883 5884 5885 5887 5888 5889 5890 5892 5892 5893 5893 5893 5893 5893 5893 5893 5892 5892 5892 5891 5890 5891 5891 5891 5890 5889 5887 5887 5886 5887 5888 5888 5888 5888 5888 5888 5887 5886 5885 5885
5784 5786 5789 5792 5795 5797 5800 5804 5808 5811 5813 5816 5819 5821 5823 5826 5829 5831 5834 5835 5837 5840 5843 5846 5848 5851 5853 5855 5857 5858 5860 5860 5860 5861 5862 5863 5864 5865 5866 5867 5868 5868 5868 5871 5875 5878 5879 5880 5882 5883 5884 5885 5886 5887 5888 5889 5889 5888 5888 5888 5888 5887 5887 5886 5886 5886 5887 5886 5885 5884 5883 5882 5881 5881 5881 5882 5882 5882 5882 5882 5882 5882 5881 5880 5879
5777 5780 5782 5784 5788 5791 5793 5797 5802 5805 5807 5810 5813 5815 5817 5821 5823 5826 5828 5831 5834 5836 5838 5840 5842 5845 5847 5849 5851 5853 5854 5855 5855 5856 5857 5857 5858 5858 5860 5862 5864 5864 5865 5868 5870 5872 5873 5875 5877 5879 5879 5880 5880 5881 5882 5883 5884 5883 5883 5883 5883 5882 5882 5880 5880 5881 5881 5881 5880 5878 5877 5876 5875 5875 5875 5876 5876 5876 5876 5877 5876 5876 5875 5875 5874
5768 5773 5776 5778 5781 5784 5787 5791 5795 5799 5801 5804 5807 5809 5812 5815 5818 5821 5823 5826 5829 5831 5833 5834 5836 5839 5842 5844 5845 5847 5848 5849 5850 5850 5851 5852 5853 5853 5855 5858 5860 5861 5863 5864 5866 5867 5868 5869 5872 5874 5874 5874 5875 5876 5876 5877 5877 5878 5878 5878 5878 5877 5876 5875 5874 5874 5875 5875 5874 5872 5871 5870 5870 5870 5870 5870 5870 5871 5871 5871 5870 5870 5869 5869 5868
5758 5763 5767 5770 5774 5777 5781 5784 5789 5792 5794 5797 5800 5803 5806 5809 5812 5815 5818 5820 5823 5825 5827 5829 5830 5833 5836 5838 5839 5841 5842 5843 5844 5844 5845 5846 5848 5849 5851 5854 5856 5858 5859 5861 5862 5862 5863 5864 5866 5868 5868 5869 5870 5870 5870 5871 5871 5871 5872 5871 5872 5872 5871 5870 5869 5868 5868 5869 5868 5866 5865 5864 5864 5864 5864 5864 5864 5865 5865 5864 5863 5863 5863 5862 5861
5748 5753 5757 5761 5766 5771 5774 5778 5782 5785 5787 5790 5794 5797 5800 5803 5806 5809 5812 5814 5817 5819 5821 5822 5823 5826 5828 5830 5832 5833 5835 5836 5837 5839 5840 5841 5843 5844 5847 5849 5851 5853 5855 5857 5857 5857 5858 5860 5861 5861 5862 5863 5864 5864 5864 5864 5865 5865 5865 5865 5866 5866 5866 5865 5863 5863 5863 5863 5862 5861 5860 5859 5859 5859 5859 5859 5859 5859 5858 5857 5857 5857 5856 5855 5854
5739 5744 5747 5752 5757 5763 5768 5771 5775 5778 5781 5783 5787 5791 5794 5796 5799 5802 5805 5808 5810 5812 5814 5815 5817 5818 5820 5822 5824 5826 5828 5829 5831 5833 5835 5836 5837 5839 5842 5844 5846 5848 5850 5852 5852 5852 5854 5855 5856 5856 5857 5858 5858 5857 5858 5858 5858 5858 5859 5859 5860 5860 5860 5859 5858 5857 5857 5857 5857 5856 5855 5854 5854 5854 5853 5853 5853 5853 5852 5851 5850 5850 5850 5848 5848
5731 5735 5739 5743 5748 5754 5760 5764 5768 5771 5774 5777 5780 5784 5787 5790 5793 5796 5799 5801 5804 5806 5807 5809 5811 5812 5812 5814 5817 5820 5821 5823 5825 5827 5829 5830 5832 5834 5836 5838 5840 5843 5845 5846 5847 5847 5848 5850 5850 5850 5850 5851 5852 5851 5851 5851 5851 5852 5852 5852 5853 5854 5854 5853 5853 5852 5851 5852 5851 5850 5849 5848 5848 5848 5847 5847 5846 5846 5845 5844 5844 5844 5843 5841 5841
5721 5726 5730 5734 5739 5744 5750 5756 5761 5764 5766 5770 5774 5777 5781 5784 5787 5789 5793 5795 5798 5800 5801 5803 5805 5805 5806 5808 5810 5812 5815 5817 5819 5821 5823 5825 5827 5829 5831 5833 5835 5837 5839 5841 5842 5842 5843 5844 5843 5843 5843 5844 5845 5845 5845 5845 5845 5845 5845 5845 5846 5847 5847 5848 5847 5845 5845 5846 5845 5844 5843 5843 5842 5841 5841 5840 5839 5838 5837 5837 5837 5838 5836 5834 5834
5712 5716 5721 5726 5730 5735 5740 5746 5752 5757 5760 5763 5767 5771 5774 5777 5780 5783 5786 5789 5792 5795 5796 5798 5800 5800 5801 5802 5804 5806 5809 5812 5814 5815 5817 5819 5821 5823 5825 5827 5829 5832 5833 5835 5836 5837 5837 5836 5836 5835 5835 5836 5837 5838 5838 5838 5838 5838 5838 5837 5837 5838 5840 5840 5840 5838 5838 5839 5839 5838 5837 5836 5836 5835 5834 5832 5831 5831 5830 5829 5830 5830 5829 5828 5827
5702 5707 5711 5716 5722 5727 5732 5737 5743 5748 5753 5756 5760 5764 5767 5771 5774 5777 5780 5783 5786 5789 5791 5794 5795 5796 5797 5797 5799 5801 5804 5806 5808 5810 5812 5814 5815 5817 5819 5821 5823 5825 5827 5828 5829 5829 5829 5829 5828 5827 5827 5828 5829 5830 5831 5831 5831 5831 5830 5829 5828 5830 5832 5832 5832 5831 5831 5832 5832 5831 5831 5830 5830 5829 5827 5826 5825 5824 5823 5822 5822 5821 5820 5820 5820
5692 5697 5702 5707 5712 5718 5723 5728 5734 5739 5744 5749 5752 5756 5760 5764 5767 5770 5773 5776 5779 5782 5785 5788 5790 5791 5793 5794 5795 5796 5799 5801 5803 5804 5806 5808 5809 5811 5813 5815 5816 5818 5820 5821 5821 5822 5822 5821 5820 5819 5819 5821 5823 5824 5824 5823 5823 5822 5820 5818 5819 5821 5823 5824 5824 5824 5824 5824 5824 5823 5823 5823 5823 5822 5820 5819 5818 5816 5815 5815 5814 5813 5812 5812 5813
5682 5687 5692 5698 5703 5709 5714 5719 5725 5731 5736 5740 5744 5748 5752 5756 5759 5763 5766 5769 5772 5775 5778 5781 5783 5786 5788 5789 5790 5791 5793 5795 5797 5798 5800 5801 5803 5805 5806 5808 5809 5811 5812 5813 5814 5814 5813 5812 5811 5812 5815 5817 5818 5817 5817 5818 5817 5815 5812 5810 5810 5811 5813 5814 5815 5816 5816 5816 5816 5815 5815 5815 5815 5814 5813 5812 5811 5809 5808 5807 5807 5807 5807 5806 5806
5672 5677 5683 5688 5694 5700 5705 5710 5716 5722 5727 5732 5736 5740 5744 5748 5751 5755 5758 5762 5765 5768 5771 5774 5776 5779 5781 5783 5785 5786 5787 5788 5790 5792 5793 5795 5796 5798 5799 5801 5802 5803 5804 5805 5805 5805 5804 5802 5803 5806 5810 5811 5810 5809 5810 5811 5811 5809 5806 5805 5805 5805 5804 5804 5806 5808 5808 5808 5808 5808 5807 5807 5806 5806 5806 5805 5803 5801 5801 5800 5799 5799 5800 5800 5799
5662 5667 5673 5679 5685 5690 5696 5701 5706 5712 5718 5723 5727 5731 5735 5739 5743 5746 5750 5754 5758 5761 5764 5766 5769 5772 5774 5776 5778 5780 5781 5782 5783 5785 5787 5789 5790 5791 5792 5793 5794 5795 5796 5796 5797 5796 5794 5794 5796 5799 5800 5800 5801 5802 5803 5804 5804 5802 5799 5798 5799 5799 5797 5797 5797 5798 5800 5800 5800 5800 5800 5798 5798 5797 5797 5796 5795 5793 5793 5792 5791 5790 5791 5792 5791
5652 5657 5664 5670 5676 5681 5687 5692 5697 5703 5709 5714 5719 5723 5727 5730 5734 5738 5742 5745 5749 5753 5756 5759 5762 5765 5767 5769 5771 5773 5775 5776 5777 5779 5780 5782 5784 5785 5785 5786 5787 5787 5788 5788 5789 5788 5788 5787 5788 5790 5790 5790 5792 5794 5795 5795 5795 5794 5792 5790 5790 5789 5789 5789 5789 5789 5790 5791 5791 5790 5790 5790 5790 5789 5788 5788 5787 5785 5785 5785 5784 5784 5784 5785 5784
5643 5648 5654 5661 5667 5672 5678 5683 5688 5693 5699 5704 5710 5714 5718 5722 5726 5729 5733 5737 5740 5744 5748 5751 5754 5757 5760 5762 5764 5766 5768 5769 5770 5772 5773 5775 5776 5777 5778 5779 5780 5780 5781 5781 5781 5782 5781 5781 5781 5782 5782 5783 5784 5785 5786 5786 5786 5785 5784 5783 5782 5782 5781 5781 5781 5781 5781 5781 5780 5780 5780 5781 5781 5779 5777 5777 5777 5778 5778 5778 5778 5778 5778 5779 5779
5635 5640 5645 5652 5658 5664 5669 5674 5679 5684 5689 5695 5700 5705 5710 5714 5717 5721 5724 5728 5732 5735 5739 5743 5746 5749 5752 5755 5757 5759 5760 5762 5763 5764 5766 5767 5769 5770 5771 5772 5773 5773 5773 5774 5774 5774 5774 5773 5774 5774 5774 5774 5775 5776 5777 5778 5778 5777 5776 5775 5774 5774 5774 5773 5772 5772 5772 5771 5770 5770 5770 5771 5772 5771 5768 5767 5768 5770 5770 5770 5771 5771 5771 5771 5771
5627 5632 5637 5643 5649 5655 5661 5666 5671 5676 5681 5686 5691 5696 5701 5705 5709 5712 5716 5719 5723 5727 5730 5734 5737 5741 5744 5746 5749 5750 5752 5754 5755 5757 5758 5760 5761 5762 5763 5764 5765 5766 5766 5766 5767 5767 5766 5766 5766 5766 5766 5766 5766 5767 5767 5767 5768 5769 5769 5768 5766 5766 5766 5765 5764 5763 5762 5761 5761 5761 5761 5761 5762 5763 5762 5760 5760 5761 5762 5762 5762 5762 5761 5761 5760
5620 5625 5629 5634 5640 5647 5653 5658 5663 5668 5673 5678 5682 5687 5692 5696 5700 5704 5707 5710 5714 5717 5721 5724 5728 5732 5735 5738 5740 5742 5744 5746 5748 5749 5751 5752 5753 5755 5756 5757 5758 5758 5759 5759 5759 5759 5759 5759 5759 5759 5758 5758 5759 5759 5758 5758 5758 5758 5758 5758 5757 5757 5757 5756 5755 5754 5753 5752 5751 5752 5752 5752 5752 5752 5752 5752 5752 5753 5753 5753 5753 5752 5751 5749 5748